Location: Sungai Laei
(2.6000°N, 113.7167°E)
Time: 12:47:36
(UTC+00:00)

deb Chang Zheng 4 - Pass Details

Date: 22 May 2022
Orbit: 582 x 599 km, 98.6° (Epoch: 07 July)

Event Time Altitude Azimuth Distance (km) Brightness Sun altitude
Exits shadow 12:29:07 42° 315° (NW) 840 4.6 -28.5°
Drops below altitude 10° 12:32:00 10° 338° (NNW) 1,891 6.6 -29.2°
Sets 12:34:10 0° 342° (NNW) 2,787 7.5 -29.7°
